Custer, SD

1:39 PM MST on February 14, 2016 (GMT -0700)
Custer County

Weather History for KCUT - October, 2011

Change the Weather History Date:

Tuesday, October 18, 2011

  Actual Average Record
Temperature  
Mean Temperature 38 °F 42 °F  
Max Temperature 49 °F 54 °F 77 °F (1955)
Min Temperature 26 °F 30 °F 13 °F (1968)
Degree Days  
Heating Degree Days 27 23  
Month to date heating degree days 288 368  
Since 1 July heating degree days 640 854  
Cooling Degree Days 0 0  
Month to date cooling degree days 0 0  
Year to date cooling degree days 267 177  
Moisture  
Dew Point 18 °F    
Average Humidity 52    
Maximum Humidity 75    
Minimum Humidity 29    
Precipitation  
Precipitation 0.00 in 0.06 in 1.00 in (1971)
Month to date precipitation 0.33 1.05  
Year to date precipitation 19.99 17.54  
Sea Level Pressure  
Sea Level Pressure 30.28 in    
Wind  
Wind Speed 6 mph (NW)    
Max Wind Speed 21 mph    
Max Gust Speed 29 mph    
Visibility 10 miles    
Events      
T = Trace of Precipitation, MM = Missing Value Source: NWS Daily Summary

Daily Weather History Graph

Daily Weather History Graph

Search for Another Location

Airport or City:

Trip Planner

Search our weather history database for the weather conditions in past years. The results will help you decide how hot, cold, wet, or windy it might be!

Date:

Astronomy

Oct. 18, 2011 Rise Set
Actual Time 7:12 AM MDT 6:06 PM MDT
Civil Twilight 6:43 AM MDT 6:35 PM MDT
Nautical Twilight 6:09 AM MDT 7:08 PM MDT
Astronomical Twilight 5:36 AM MDT 7:41 PM MDT
Moon 10:43 PM MDT (10/18) 1:11 PM MDT (10/18)
Length of Visible Light 11h 52m
Length of Day
10h 54m
Waning Gibbous, 64% of the Moon is Illuminated
Oct 18
Waning Gibbous
Oct 19
Last Quarter
Oct 26
New
Nov 2
First Quarter
Nov 10
Full

Hourly Weather History & Observations

Time (MDT) Temp. Windchill Dew Point Humidity Pressure Visibility Wind Dir Wind Speed Gust Speed Precip Events Conditions
12:53 AM 35.1 °F 27.9 °F 19.0 °F 52% 30.22 in 10.0 mi North 9.2 mph 16.1 mph N/A   Partly Cloudy
1:53 AM 35.1 °F 26.4 °F 18.0 °F 50% 30.23 in 10.0 mi NNW 12.7 mph 19.6 mph N/A   Overcast
2:53 AM 35.1 °F 27.4 °F 18.0 °F 50% 30.23 in 10.0 mi NNW 10.4 mph 17.3 mph N/A   Clear
3:53 AM 34.0 °F 27.2 °F 16.0 °F 48% 30.25 in 10.0 mi NNW 8.1 mph - N/A   Clear
4:53 AM 33.1 °F 28.7 °F 16.0 °F 50% 30.27 in 10.0 mi NNW 4.6 mph - N/A   Clear
5:53 AM 32.0 °F 28.7 °F 16.0 °F 52% 30.31 in 10.0 mi NNW 3.5 mph - N/A   Scattered Clouds
6:53 AM 30.0 °F - 15.1 °F 54% 30.33 in 10.0 mi Calm Calm - N/A   Clear
7:53 AM 32.0 °F 27.5 °F 16.0 °F 52% 30.35 in 10.0 mi West 4.6 mph - N/A   Clear
8:53 AM 39.0 °F 35.7 °F 19.0 °F 45% 30.32 in 10.0 mi WNW 4.6 mph - N/A   Clear
9:53 AM 44.1 °F 39.0 °F 21.9 °F 42% 30.29 in 10.0 mi NNW 9.2 mph - N/A   Clear
10:53 AM 46.0 °F 40.6 °F 19.0 °F 34% 30.28 in 10.0 mi WNW 11.5 mph 18.4 mph N/A   Clear
11:53 AM 46.9 °F - 18.0 °F 32% 30.27 in 10.0 mi NW 11.5 mph 19.6 mph N/A   Partly Cloudy
12:53 PM 46.9 °F - 17.1 °F 30% 30.27 in 10.0 mi NNW 6.9 mph 21.9 mph N/A   Partly Cloudy
1:53 PM 46.9 °F - 17.1 °F 30% 30.26 in 10.0 mi NNW 13.8 mph 25.3 mph N/A   Clear
2:53 PM 46.9 °F - 18.0 °F 32% 30.25 in 10.0 mi North 11.5 mph 20.7 mph N/A   Clear
3:53 PM 48.0 °F - 18.0 °F 30% 30.25 in 10.0 mi NNW 9.2 mph 19.6 mph N/A   Clear
4:53 PM 45.0 °F 41.8 °F 17.1 °F 33% 30.27 in 10.0 mi Variable 5.8 mph 17.3 mph N/A   Clear
5:53 PM 42.1 °F 39.2 °F 18.0 °F 38% 30.29 in 10.0 mi Variable 4.6 mph - N/A   Clear
6:53 PM 37.9 °F - 19.9 °F 48% 30.33 in 10.0 mi Calm Calm - N/A   Clear
7:53 PM 37.0 °F 34.5 °F 19.9 °F 50% 30.32 in 10.0 mi NNW 3.5 mph - N/A   Clear
8:53 PM 34.0 °F - 19.9 °F 56% 30.31 in 10.0 mi Calm Calm - N/A   Clear
9:53 PM 30.9 °F 26.2 °F 19.9 °F 64% 30.30 in 10.0 mi West 4.6 mph - N/A   Clear
10:53 PM 30.0 °F 26.5 °F 19.9 °F 66% 30.29 in 10.0 mi NW 3.5 mph - N/A   Clear
11:53 PM 26.1 °F 21.9 °F 19.0 °F 75% 30.29 in 10.0 mi NW 3.5 mph - N/A   Clear